SCP
0 -0 0 -0 0 0 1 0 0 0 0 0 0 0 0 0 0 0 0 0 -0 -0 -0 -0 -0 -0 -0 0 -0 -0 -0 -0 0 0 0 0 0 0
0 -0 -0 -0 0 1 0 0 0 0 0 0 0 0 0 0 1 0 0 0 0 0 0 0 0 0 0 0 0 -0 0 0 0 0 0 0 0 0
0 0 0 0 0 1 0 0 1 1 0 0 0 0 0 -0 0 0 0 0 0 -0 -0 0 0 0 0 0 0 0 0 0 0 0 0 0 0 0
0 0 0 0 0 0 0 1 0 0 0 0 0 0 0 -0 -0 0 0 -0 -0 -0 0 0 0 -0 -0 0 0 0 0 0 0 0 0 0 0 0
0 0 0 0 0 0 0 0 1 1 0 0 0 0 0 -0 0 0 0 0 0 0 0 0 0 0 0 0 0 0 0 0 0 0 0 0 0 0
0 0 0 0 0 0 0 0 0 0 0 0 0 0 0 0 0 0 0 0 0 1 0 0 0 0 0 0 0 0 0 0 0 0 0 0 0 0
0 0 0 1 0 0 1 0 1 1 0 0 0 0 0 0 1 1 0 0 0 0 0 0 0 0 0 0 0 0 0 0 0 0 0 0 0 0
0 0 0 1 0 0 0 0 0 1 1 1 0 0 0 0 0 0 0 0 0 1 1 0 1 0 0 0 0 0 0 0 0 0 0 0 0 0
0 0 0 0 0 1 0 0 0 0 0 1 0 0 0 0 0 0 0 0 0 0 1 0 0 0 0 0 0 0 0 0 0 0 0 0 0 0
0 0 1 0 0 1 0 1 1 0 0 0 0 0 0 1 1 1 1 1 0 0 0 0 0 0 0 0 0 0 0 0 0 0 0 0 0 0
0 0 0 1 0 0 0 0 1 0 0 0 0 0 0 0 1 1 1 1 0 0 1 1 0 0 0 0 0 0 0 0 0 0 0 0 0 0
0 0 0 0 0 0 0 1 0 0 0 1 0 0 0 0 0 1 1 0 0 0 1 1 0 0 0 0 0 0 0 0 0 0 0 0 0 0
0 0 0 0 0 0 0 0 0 0 0 0 0 1 1 1 1 0 1 0 0 0 0 0 0 0 0 0 0 0 0 0 0 0 0 0 0 0
1 0 0 0 0 0 0 0 0 0 0 1 0 0 1 1 1 1 1 1 0 0 0 1 0 0 0 0 0 0 0 0 0 0 0 0 0 0
0 0 0 0 0 0 -0 0 0 0 1 1 0 0 0 0 1 1 1 1 1 1 0 1 0 0 0 0 0 0 0 0 0 0 0 0 0 0
0 0 0 0 0 0 0 0 0 0 0 0 0 0 0 1 1 1 1 1 1 0 0 0 0 0 0 0 0 0 0 0 0 0 0 0 0 0
1 1 1 1 1 0 0 0 0 0 0 1 1 0 0 1 1 1 1 1 1 0 0 1 1 0 0 0 0 0 0 0 0 0 0 0 0 0
0 2 2 2 1 1 0 1 1 1 1 1 1 1 1 1 1 2 2 1 1 0 0 0 0 0 0 0 0 0 0 0 0 0 0 0 0 0
1 1 1 1 1 1 1 1 1 1 1 1 1 1 1 1 1 2 1 1 1 0 0 0 0 0 0 0 0 0 0 0 0 0 0 0 0 0
0 1 1 1 0 0 1 1 1 1 1 0 0 0 0 1 1 2 1 1 0 0 0 0 0 0 0 0 0 0 0 0 0 0 0 0 0 0
0 0 0 1 0 0 0 0 1 1 2 0 0 0 -0 1 1 1 1 1 0 0 0 0 0 0 0 0 0 0 0 0 0 0 0 0 0 0
0 0 0 1 0 0 0 1 1 2 1 1 1 1 1 1 0 1 1 1 0 0 0 0 0 0 0 0 0 0 0 0 0 0 0 0 0 0
1 1 0 1 1 1 1 0 0 1 2 2 2 1 1 1 0 1 1 0 0 0 0 0 0 0 0 0 0 0 0 0 0 0 0 -0 -0 -0
Wind_Speed_500mb
48 45 43 45 33 37 35 31 33 19 15 17 31 24 24 25 30 29 31 35 37 37 38 34 33 35 34 33 32 30 28 27 29 31 33 35 37 38
56 48 45 54 41 39 43 37 27 27 22 21 24 33 22 9 32 24 31 33 29 30 33 36 37 36 39 40 38 35 34 35 36 36 37 37 36 37
59 53 51 51 54 43 47 44 36 29 23 23 35 22 30 29 17 25 22 22 15 16 16 18 24 28 30 34 37 39 41 42 42 41 42 42 44 44
60 57 54 53 49 52 41 46 41 30 28 32 29 33 48 30 28 33 28 33 26 27 24 26 24 28 32 33 37 41 42 43 44 45 45 46 48 47
52 53 51 48 50 49 53 46 41 29 39 37 22 28 18 23 24 23 24 25 17 23 24 33 37 28 20 23 28 35 40 42 45 45 45 46 46 47
44 48 48 46 46 48 48 51 44 50 27 31 28 23 17 21 24 28 27 25 25 26 29 34 33 32 26 25 26 24 29 27 29 35 36 36 36 37
43 43 43 44 44 45 50 54 47 45 45 31 37 27 29 33 31 33 31 25 24 23 19 21 23 30 34 30 28 29 27 30 36 44 37 26 24 24
50 45 40 39 43 35 39 42 50 45 44 34 36 39 32 29 28 25 23 23 26 24 22 32 29 29 27 30 33 34 28 31 35 48 35 26 21 21
53 56 50 52 49 49 45 43 47 42 46 44 46 44 38 33 32 37 31 33 44 42 31 35 31 32 33 38 31 35 30 33 37 43 34 27 25 26
51 50 50 53 55 53 47 43 50 57 54 50 48 46 41 37 35 35 39 41 42 42 30 34 17 27 30 30 29 31 32 32 35 35 32 27 29 30
53 52 53 50 53 49 50 52 46 50 57 55 55 53 46 43 41 37 36 32 31 17 23 34 28 22 27 29 33 40 37 30 26 34 30 30 32 31
46 58 58 60 48 51 59 57 54 57 51 47 47 47 45 45 40 43 45 48 44 35 26 24 19 22 24 29 27 23 25 28 35 38 31 34 27 20
42 55 64 53 62 64 58 60 60 63 62 61 52 50 48 52 53 46 47 48 50 47 36 38 34 36 31 29 34 35 30 41 39 32 34 24 22 23
64 38 49 53 46 62 76 75 64 60 65 65 62 62 56 51 46 46 44 42 35 44 51 50 42 32 34 35 30 19 30 36 35 36 25 25 22 22
67 72 58 50 64 55 56 64 74 66 68 67 68 62 55 50 52 48 44 48 42 39 49 55 46 40 36 38 40 35 29 22 27 32 30 24 19 26
72 72 66 60 55 62 57 60 62 77 72 74 75 67 65 62 62 55 54 58 55 50 44 38 22 21 28 31 33 43 45 39 27 28 23 27 31 31
55 66 72 73 73 64 57 60 67 66 72 70 67 69 70 62 59 55 59 58 54 45 38 37 37 30 29 33 33 35 30 28 35 32 33 32 31 28
41 42 60 79 81 75 65 60 66 72 77 73 73 67 62 60 59 55 53 51 50 49 43 42 44 38 33 35 33 31 32 35 36 37 35 30 32 10
51 43 44 49 71 79 77 66 69 68 62 65 67 64 72 70 62 65 65 62 64 57 48 46 46 39 35 34 33 38 37 31 30 32 31 22 12 16
52 56 61 56 45 47 50 58 61 60 64 66 62 62 76 70 70 70 65 57 59 56 51 49 41 38 42 44 34 26 29 30 33 34 19 15 20 27
64 65 63 62 52 53 55 53 61 60 61 65 75 78 96 81 74 73 62 54 54 54 61 61 52 51 48 40 42 44 33 33 29 38 26 27 26 22
71 65 58 61 62 68 58 52 57 57 49 54 64 70 74 72 63 70 59 47 57 62 58 53 50 50 55 51 46 41 32 32 25 27 37 27 26 18
69 61 55 52 68 62 65 66 66 55 55 52 62 63 60 58 60 57 60 57 53 63 60 55 44 50 53 47 39 31 34 36 28 22 21 16 13 12
Wind_Direction_500mb
224 228 233 216 219 229 234 244 249 246 264 213 226 235 212 216 247 266 269 264 264 267 256 254 258 258 264 268 274 269 271 280 282 280 279 278 277 278
232 233 228 217 214 232 228 223 232 239 231 245 237 248 192 246 215 245 263 249 260 263 260 254 259 257 266 262 269 267 270 276 283 280 280 278 280 281
225 226 227 218 216 218 229 224 226 235 235 215 226 206 241 258 272 232 259 268 286 287 277 250 250 260 263 264 267 267 272 279 281 281 280 280 280 281
224 228 227 218 217 218 216 225 219 219 243 249 229 219 230 221 218 235 261 255 263 274 269 257 277 282 274 271 271 273 276 278 281 281 279 278 278 279
223 224 222 215 219 226 223 224 222 232 239 237 252 227 238 226 229 255 279 290 295 286 292 291 291 279 286 292 286 283 283 286 284 281 281 280 280 280
224 223 224 221 223 228 223 226 225 217 231 213 231 230 213 225 253 239 259 269 257 270 279 271 261 272 288 284 280 296 306 313 312 300 291 288 286 282
217 218 225 230 226 228 229 230 228 219 223 214 226 225 251 244 228 254 263 277 272 280 279 267 257 256 274 273 271 283 290 296 312 321 305 299 293 291
212 216 223 222 218 227 235 222 225 229 229 227 226 231 247 246 247 253 264 263 259 250 267 246 241 268 289 286 286 279 281 293 306 321 303 297 297 299
226 223 228 225 223 222 229 226 229 233 237 234 240 237 244 258 253 246 253 264 275 280 274 275 258 265 278 279 294 276 281 291 303 316 308 293 298 302
244 246 241 229 227 232 233 236 237 235 237 241 247 248 257 260 264 264 263 272 275 282 280 274 294 283 273 279 286 285 274 282 297 314 308 296 300 302
253 251 244 240 233 239 242 241 244 247 246 245 250 260 265 263 262 261 260 277 292 284 284 269 284 279 296 267 282 281 273 273 295 312 300 295 300 304
277 266 253 243 243 232 234 241 246 244 243 238 245 249 255 258 254 254 262 261 261 268 285 275 252 252 269 276 285 275 261 275 295 306 292 291 293 308
243 280 251 243 236 235 237 236 244 242 245 244 243 247 252 251 257 253 263 260 261 244 253 265 270 275 270 277 287 283 279 293 293 289 288 276 279 299
228 268 247 243 244 242 240 240 240 241 244 245 248 246 248 251 251 262 260 257 267 245 243 245 253 255 246 253 264 281 294 294 287 286 276 282 271 295
243 248 255 232 252 253 246 246 240 237 243 246 245 243 235 243 258 259 258 258 257 247 248 255 262 267 254 249 255 265 267 274 282 276 286 279 288 297
243 243 240 244 249 248 241 240 236 236 240 244 246 246 238 239 242 248 249 246 244 260 241 248 244 252 262 252 260 263 264 272 270 278 275 281 280 288
253 248 244 239 244 249 245 240 239 239 239 243 244 249 245 241 241 246 242 238 242 236 240 248 245 255 269 265 263 259 265 259 262 265 264 271 281 294
250 261 248 243 241 244 243 242 245 247 244 249 248 240 241 238 238 231 231 231 242 249 253 242 242 242 252 264 273 274 236 251 256 264 264 277 297 260
253 259 265 254 242 243 247 246 248 251 253 248 248 247 241 234 239 236 238 242 248 237 234 239 235 238 248 255 277 271 254 245 252 259 274 272 215 252
258 259 259 248 231 234 245 250 251 252 253 246 236 256 250 233 231 238 242 247 246 232 229 222 231 240 245 243 247 272 240 243 254 245 231 236 237 251
262 261 257 242 238 239 242 256 252 254 260 253 245 240 238 233 232 240 244 254 232 220 223 233 250 259 250 243 247 241 257 272 274 225 225 218 222 253
256 257 259 246 245 240 248 247 251 254 256 250 245 240 236 239 236 235 236 233 219 228 229 237 239 237 236 243 249 251 251 239 265 225 215 227 222 206
248 241 243 251 236 233 234 239 241 247 244 248 261 253 245 239 227 249 241 234 232 227 234 229 218 216 222 231 238 234 225 241 227 233 204 193 177 173
Wind_Speed_850mb
48 45 43 45 33 37 35 31 33 19 15 17 31 24 24 25 30 29 31 35 37 37 38 34 33 35 34 33 32 30 28 27 29 31 33 35 37 38
56 48 45 54 41 39 43 37 27 27 22 21 24 33 22 9 32 24 31 33 29 30 33 36 37 36 39 40 38 35 34 35 36 36 37 37 36 37
59 53 51 51 54 43 47 44 36 29 23 23 35 22 30 29 17 25 22 22 15 16 16 18 24 28 30 34 37 39 41 42 42 41 42 42 44 44
60 57 54 53 49 52 41 46 41 30 28 32 29 33 48 30 28 33 28 33 26 27 24 26 24 28 32 33 37 41 42 43 44 45 45 46 48 47
52 53 51 48 50 49 53 46 41 29 39 37 22 28 18 23 24 23 24 25 17 23 24 33 37 28 20 23 28 35 40 42 45 45 45 46 46 47
44 48 48 46 46 48 48 51 44 50 27 31 28 23 17 21 24 28 27 25 25 26 29 34 33 32 26 25 26 24 29 27 29 35 36 36 36 37
43 43 43 44 44 45 50 54 47 45 45 31 37 27 29 33 31 33 31 25 24 23 19 21 23 30 34 30 28 29 27 30 36 44 37 26 24 24
50 45 40 39 43 35 39 42 50 45 44 34 36 39 32 29 28 25 23 23 26 24 22 32 29 29 27 30 33 34 28 31 35 48 35 26 21 21
53 56 50 52 49 49 45 43 47 42 46 44 46 44 38 33 32 37 31 33 44 42 31 35 31 32 33 38 31 35 30 33 37 43 34 27 25 26
51 50 50 53 55 53 47 43 50 57 54 50 48 46 41 37 35 35 39 41 42 42 30 34 17 27 30 30 29 31 32 32 35 35 32 27 29 30
53 52 53 50 53 49 50 52 46 50 57 55 55 53 46 43 41 37 36 32 31 17 23 34 28 22 27 29 33 40 37 30 26 34 30 30 32 31
46 58 58 60 48 51 59 57 54 57 51 47 47 47 45 45 40 43 45 48 44 35 26 24 19 22 24 29 27 23 25 28 35 38 31 34 27 20
42 55 64 53 62 64 58 60 60 63 62 61 52 50 48 52 53 46 47 48 50 47 36 38 34 36 31 29 34 35 30 41 39 32 34 24 22 23
64 38 49 53 46 62 76 75 64 60 65 65 62 62 56 51 46 46 44 42 35 44 51 50 42 32 34 35 30 19 30 36 35 36 25 25 22 22
67 72 58 50 64 55 56 64 74 66 68 67 68 62 55 50 52 48 44 48 42 39 49 55 46 40 36 38 40 35 29 22 27 32 30 24 19 26
72 72 66 60 55 62 57 60 62 77 72 74 75 67 65 62 62 55 54 58 55 50 44 38 22 21 28 31 33 43 45 39 27 28 23 27 31 31
55 66 72 73 73 64 57 60 67 66 72 70 67 69 70 62 59 55 59 58 54 45 38 37 37 30 29 33 33 35 30 28 35 32 33 32 31 28
41 42 60 79 81 75 65 60 66 72 77 73 73 67 62 60 59 55 53 51 50 49 43 42 44 38 33 35 33 31 32 35 36 37 35 30 32 10
51 43 44 49 71 79 77 66 69 68 62 65 67 64 72 70 62 65 65 62 64 57 48 46 46 39 35 34 33 38 37 31 30 32 31 22 12 16
52 56 61 56 45 47 50 58 61 60 64 66 62 62 76 70 70 70 65 57 59 56 51 49 41 38 42 44 34 26 29 30 33 34 19 15 20 27
64 65 63 62 52 53 55 53 61 60 61 65 75 78 96 81 74 73 62 54 54 54 61 61 52 51 48 40 42 44 33 33 29 38 26 27 26 22
71 65 58 61 62 68 58 52 57 57 49 54 64 70 74 72 63 70 59 47 57 62 58 53 50 50 55 51 46 41 32 32 25 27 37 27 26 18
69 61 55 52 68 62 65 66 66 55 55 52 62 63 60 58 60 57 60 57 53 63 60 55 44 50 53 47 39 31 34 36 28 22 21 16 13 12
Wind_Direction_850mb
224 228 233 216 219 229 234 244 249 246 264 213 226 235 212 216 247 266 269 264 264 267 256 254 258 258 264 268 274 269 271 280 282 280 279 278 277 278
232 233 228 217 214 232 228 223 232 239 231 245 237 248 192 246 215 245 263 249 260 263 260 254 259 257 266 262 269 267 270 276 283 280 280 278 280 281
225 226 227 218 216 218 229 224 226 235 235 215 226 206 241 258 272 232 259 268 286 287 277 250 250 260 263 264 267 267 272 279 281 281 280 280 280 281
224 228 227 218 217 218 216 225 219 219 243 249 229 219 230 221 218 235 261 255 263 274 269 257 277 282 274 271 271 273 276 278 281 281 279 278 278 279
223 224 222 215 219 226 223 224 222 232 239 237 252 227 238 226 229 255 279 290 295 286 292 291 291 279 286 292 286 283 283 286 284 281 281 280 280 280
224 223 224 221 223 228 223 226 225 217 231 213 231 230 213 225 253 239 259 269 257 270 279 271 261 272 288 284 280 296 306 313 312 300 291 288 286 282
217 218 225 230 226 228 229 230 228 219 223 214 226 225 251 244 228 254 263 277 272 280 279 267 257 256 274 273 271 283 290 296 312 321 305 299 293 291
212 216 223 222 218 227 235 222 225 229 229 227 226 231 247 246 247 253 264 263 259 250 267 246 241 268 289 286 286 279 281 293 306 321 303 297 297 299
226 223 228 225 223 222 229 226 229 233 237 234 240 237 244 258 253 246 253 264 275 280 274 275 258 265 278 279 294 276 281 291 303 316 308 293 298 302
244 246 241 229 227 232 233 236 237 235 237 241 247 248 257 260 264 264 263 272 275 282 280 274 294 283 273 279 286 285 274 282 297 314 308 296 300 302
253 251 244 240 233 239 242 241 244 247 246 245 250 260 265 263 262 261 260 277 292 284 284 269 284 279 296 267 282 281 273 273 295 312 300 295 300 304
277 266 253 243 243 232 234 241 246 244 243 238 245 249 255 258 254 254 262 261 261 268 285 275 252 252 269 276 285 275 261 275 295 306 292 291 293 308
243 280 251 243 236 235 237 236 244 242 245 244 243 247 252 251 257 253 263 260 261 244 253 265 270 275 270 277 287 283 279 293 293 289 288 276 279 299
228 268 247 243 244 242 240 240 240 241 244 245 248 246 248 251 251 262 260 257 267 245 243 245 253 255 246 253 264 281 294 294 287 286 276 282 271 295
243 248 255 232 252 253 246 246 240 237 243 246 245 243 235 243 258 259 258 258 257 247 248 255 262 267 254 249 255 265 267 274 282 276 286 279 288 297
243 243 240 244 249 248 241 240 236 236 240 244 246 246 238 239 242 248 249 246 244 260 241 248 244 252 262 252 260 263 264 272 270 278 275 281 280 288
253 248 244 239 244 249 245 240 239 239 239 243 244 249 245 241 241 246 242 238 242 236 240 248 245 255 269 265 263 259 265 259 262 265 264 271 281 294
250 261 248 243 241 244 243 242 245 247 244 249 248 240 241 238 238 231 231 231 242 249 253 242 242 242 252 264 273 274 236 251 256 264 264 277 297 260
253 259 265 254 242 243 247 246 248 251 253 248 248 247 241 234 239 236 238 242 248 237 234 239 235 238 248 255 277 271 254 245 252 259 274 272 215 252
258 259 259 248 231 234 245 250 251 252 253 246 236 256 250 233 231 238 242 247 246 232 229 222 231 240 245 243 247 272 240 243 254 245 231 236 237 251
262 261 257 242 238 239 242 256 252 254 260 253 245 240 238 233 232 240 244 254 232 220 223 233 250 259 250 243 247 241 257 272 274 225 225 218 222 253
256 257 259 246 245 240 248 247 251 254 256 250 245 240 236 239 236 235 236 233 219 228 229 237 239 237 236 243 249 251 251 239 265 225 215 227 222 206
248 241 243 251 236 233 234 239 241 247 244 248 261 253 245 239 227 249 241 234 232 227 234 229 218 216 222 231 238 234 225 241 227 233 204 193 177 173